STARLINK-32892, 62893

Orbit data source: Space-Track

STARLINK-32892, 62893 is a payload satellite owned by SpaceX/Seattle (US) in LEO that was launched on Tue, 04 Feb 2025 UTC via an FALCON 9 launch vehicle from the Air Force Eastern Test Range (AFETR). Payload-class satellites include a variety of spacecraft equipped with specific instruments for various scientific and technological missions. These include communications satellites like Starlink; space stations such as the ISS; scientific satellites like the Hubble; Earth observation satellites from companies like Planet Labs, Umbra, and HawkEye 360; GPS; miniature CubeSats for education and research; and military/defense satellites.

Loading next visibility...
Identifier
62893, 2025-024Q
Orbit
LEO
Country
Flag of USUS
Related business
Manufacturer
SpaceX/Seattle
Mission
Operational Commercial Communications
Bus & Motor
STARLINK V2M, Unknown motor
Mass
730 kg wet, ~700 kg dry
Launch date (UTC)
2025-02-04 (8 months ago)
Launch vehicle
FALCON 9
Launch site
Air Force Eastern Test Range (AFETR)
Object type
Payload
Rocket body
Debris
Shape & HBR
Box + 2 Pan, 17.7 m
Radar Cross Section
33.884 m², Large (>1 m²)

Expand to show TLE details & history
Last TLE update: 1 day ago

TLE from 1 day ago
0 STARLINK-32892
1 62893U 25024Q   25290.75356097  .00042117  00000-0  15294-2 0  9999
2 62893  43.0016  52.7674 0001602 265.1859  94.8810 15.27621846 40400
Epoch: 2025-10-17T18:05Z
TLE epoch observation values (Epoch: 2025-10-17T18:05:07.667Z)
Latitude
-0.00002°
Longitude
114.99103°
Altitude
482.793 km
Speed
7.626 km/s
True Right ascension
03h 31m 04s
True Declination
0° 00' 00"
Sunlit
Object was in full shadow at epoch
Visualization orbit readout
Latitude
Unknown
Longitude
Unknown
Altitude
Unknown
Speed
Unknown
Apparent Right ascension
Unknown
Apparent Declination
Unknown
Sunlit
N/A
Visualization observer readout
Local Sidereal Time
18:12:50
Azimuth
Unknown
Elevation
Unknown
Doppler factor
Unknown
Orbital elements
Apogee altitude
485.968 km
Perigee altitude
483.769 km
Semi-major axis
6,863.006 km
Eccentricity
0.00016
Inclination
43.0016°
RAAN
52.7674°
Arg. of periapsis
265.1859°
True anomaly
94.89929°
Mean anomaly
94.881°
Eccentric anomaly
94.89015°
Mean motion
3.81743 °/min
Orbital period
94.3 mins
BSTAR
0.0015294
Loading maneuver chart data...
Computing Atmospheric mass density...
Loading historical data...
Loading historical data...
Loading historical data...
Loading historical data...
Loading historical data...
Loading historical data...
Loading historical data...

Documentation

Showing up to 5 results
|